[[{"header":{"parameterUnit":"m.s-1","parameterCategory":1,"la1":30.2991,"la2":30.254,"lo1":-89.0895,"lo2":-89.0444,"dy":0.0017,"dx":0.0017,"nx":28,"ny":28,"refTime":"2024-04-04T03:00:00:Z","depth":0,"parameterNumber":2,"parameterNumberName":"U-component_of_WINDS"},"data":[0,0,0,0,0,0,0,0,0,0,0,0,0,0,0,0,0,0,0,0,0,0,0,0,0,0,0,0,0,0,0,0,0,0,0,0,0,0,0,0,0,0,0,0,0,0,0,0,0,0,0,0,0,0,0,0,0,0,6.3193,6.3194,0,6.3289,6.329,6.3291,6.3182,6.3177,6.3173,6.3169,6.327,6.3276,6.3282,0,0,0,0,0,0,0,0,0,0,0,0,0,6.2919,6.2925,6.3193,6.3194,6.3196,6.3289,6.329,6.3291,6.3182,6.3177,6.3172,6.3168,6.3267,6.3275,6.3283,0,0,0,0,0,0,0,0,0,0,0,0,0,6.3029,6.2927,6.3193,6.3152,6.315,6.3288,6.329,6.3292,6.3183,6.3177,6.3171,6.3165,6.3265,6.3274,6.3284,6.3468,0,0,6.3314,6.3318,0,0,0,0,0,0,0,0,6.3023,6.3039,6.3157,6.3155,6.3153,6.3217,6.323,6.3351,6.3185,6.3171,6.3169,6.3162,6.3257,6.3267,6.3299,6.3473,6.3477,6.3315,6.332,6.3325,6.3327,0,0,0,0,0,0,0,6.3016,6.3035,6.3231,6.3159,6.3156,6.313,6.3139,6.3252,6.3248,6.3171,6.3164,6.3176,6.3255,6.329,6.33,6.3478,6.3314,6.3323,6.3329,6.3333,6.381,6.3817,0,0,0,0,0,0,6.3012,6.3029,6.3228,6.3234,6.3071,6.314,6.315,6.3203,6.3246,6.3247,6.3182,6.3171,6.3276,6.3289,6.3303,6.3523,6.3325,6.3334,6.3339,6.3803,6.3812,6.3819,0,0,0,0,0,0,6.3007,6.3031,6.3224,6.3129,6.3152,6.3152,6.3211,6.3208,6.3242,6.3254,6.3252,6.3218,6.3272,6.329,6.3428,6.3525,6.3338,6.3347,6.3795,6.3806,6.3815,6.3963,0,0,0,0,0,0,6.2999,6.303,6.3099,6.3132,6.3158,6.3347,6.3217,6.3214,6.3259,6.3246,6.3287,6.3288,6.3268,6.3414,6.3438,6.3535,6.3355,6.3787,6.38,6.3812,6.395,6.3977,6.4001,0,0,0,0,0,6.299,6.3137,6.3103,6.3127,6.3244,6.3353,6.3367,6.3341,6.3267,6.3338,6.3345,6.3287,6.351,6.3429,6.3455,6.3557,6.378,6.3796,6.3811,6.3938,6.3972,6.4,0,0,0,0,0,0,6.3115,6.314,6.3103,6.3264,6.3307,6.3334,6.3421,6.3377,6.3442,6.3427,6.3391,6.3402,6.355,6.3566,6.3476,6.3738,6.3634,6.3655,6.3721,6.3753,6.3778,6.3772,6.3363,0,0,0,0,0,6.3162,6.3247,6.3264,6.3405,6.3429,6.3422,6.3468,6.3444,6.3487,6.3505,6.3522,6.3567,6.3647,6.3701,6.3775,6.3951,6.396,6.4034,6.406,6.4081,6.41,6.4196,6.423,6.3869,6.3869,6.3869,0,0,6.3258,6.3282,6.3339,6.3431,6.3461,6.3552,6.3438,6.3538,6.3605,6.352,6.3652,6.3667,6.3715,6.3873,6.3944,6.3892,6.4201,6.41,6.4117,6.4124,6.4215,6.4249,6.428,6.388,6.3878,6.3876,0,0,6.3481,6.3507,6.3628,6.3661,6.3709,6.3703,6.3733,6.3767,6.3773,6.3905,6.3844,6.3924,6.4062,6.41,6.4137,6.4376,6.4326,6.4401,6.4535,6.4629,6.4658,6.4683,6.477,6.4801,6.442,6.4421,6.4421,0,6.3595,6.3728,6.3696,6.3802,6.3845,6.3772,6.3895,6.3929,6.3999,6.4031,6.3972,6.4146,6.4173,6.434,6.4398,6.443,6.4464,6.4397,6.4656,6.4681,6.4704,6.4786,6.4819,6.4429,6.4428,6.4427,6.4427,0,6.3868,6.3961,6.4053,6.4123,6.4176,6.429,6.4276,6.4335,6.4307,6.4308,6.4445,6.4475,6.4555,6.4592,6.4566,6.4757,6.4724,6.4661,6.4556,6.4748,6.4825,6.4856,6.4442,6.4439,6.4436,6.4434,0,0,6.4171,6.4222,6.4257,6.4288,6.4336,6.4408,6.4519,6.4597,6.4649,6.47,6.4794,6.4914,6.4857,6.4899,6.4876,6.4959,6.5149,6.4886,6.4887,6.4935,6.5363,6.5411,6.5448,6.5115,6.5121,6.5126,6.536,0,6.4396,6.4588,6.4563,6.4748,6.4835,6.4768,6.4865,6.4906,6.4911,6.4986,6.4991,6.5078,6.4995,6.5021,6.5099,6.5109,6.5234,6.5091,6.5204,6.5208,6.5195,6.5488,6.5538,6.5757,6.5389,6.5394,6.5398,0,6.4683,6.4745,6.4939,6.4974,6.501,6.5098,6.5168,6.5241,6.5286,6.5284,6.5333,6.5295,6.5409,6.5301,6.5458,6.5361,6.5406,6.5418,6.5425,6.5435,6.5315,6.5507,6.5826,6.586,6.5445,6.5441,6.5438,0,6.4888,6.5019,6.5152,6.5181,6.5225,6.5289,6.5311,6.535,6.5399,6.5461,6.5493,6.5568,6.5609,6.5669,6.5653,6.5576,6.5815,6.5705,6.5817,6.5818,6.5871,6.5868,6.6203,6.5898,6.5898,6.5897,6.5897,0,6.5142,6.5263,6.5245,6.5327,6.5461,6.5432,6.5567,6.558,6.5616,6.5701,6.5647,6.5728,6.5703,6.5783,6.5772,6.5904,6.5923,6.5925,6.5921,6.5931,6.5931,6.596,6.5945,6.5906,6.5904,6.5902,6.5901,0,6.5393,6.5385,6.5526,6.5557,6.5568,6.5666,6.5693,6.5771,6.5772,6.588,6.5904,6.5906,6.5997,6.5988,6.609,6.6083,6.6248,6.6225,6.6233,6.6228,6.6342,6.6332,6.6708,6.6757,6.6419,6.6423,6.6425,0,6.5556,6.5648,6.5689,6.5742,6.5768,6.5853,6.5903,6.5879,6.5933,6.5993,6.6065,6.6151,6.6219,6.6369,6.6381,6.646,6.6439,6.6565,6.645,6.6458,6.6443,6.6438,6.6448,6.6588,6.6592,6.6595,6.6598,0,6.5847,6.5839,6.5912,6.5986,6.6047,6.6104,6.6155,6.6202,6.6182,6.6247,6.6339,6.6392,6.6498,6.6585,6.666,6.6684,6.6639,6.6634,6.6664,6.6676,6.6677,6.668,6.6296,6.6626,6.6623,6.6621,6.6619,6.6618,6.606,6.6139,6.6181,6.6266,6.6302,6.6351,6.6427,6.6437,6.6514,6.6597,6.6578,6.6684,6.6729,6.6824,6.6856,6.6939,6.6893,6.6937,6.6948,6.696,6.6974,6.6663,6.6952,6.6951,6.6951,6.695,6.6949,0,6.635,6.6373,6.6451,6.6525,6.6592,6.6543,6.6598,6.6657,6.6751,6.6796,6.6864,6.6972,6.7057,6.7076,6.7157,6.722,6.7202,6.7243,6.7239,6.7245,6.7009,6.6975,6.7256,6.7256,6.7256,6.7256,6.7256,6.7256,6.6508,6.664,6.6638,6.6788,6.6811,6.6913,6.6949,6.6995,6.7031,6.7154,6.7224,6.7235,6.7271,6.7355,6.7431,6.7434,6.7468,6.7517,6.7513,6.7292,6.7262,6.7232,6.72,6.7524,6.7525,6.7742,6.7744,6.7746]},{"header":{"parameterUnit":"m.s-1","parameterCategory":1,"la1":30.2991,"la2":30.254,"lo1":-89.0895,"lo2":-89.0444,"dy":0.0017,"dx":0.0017,"nx":28,"ny":28,"refTime":"2024-04-04T03:00:00:Z","depth":0,"parameterNumber":3,"parameterNumberName":"V-component_of_WINDS"},"data":[0,0,0,0,0,0,0,0,0,0,0,0,0,0,0,0,0,0,0,0,0,0,0,0,0,0,0,0,0,0,0,0,0,0,0,0,0,0,0,0,0,0,0,0,0,0,0,0,0,0,0,0,0,0,0,0,0,0,-1.818,-1.8181,0,-1.8307,-1.8308,-1.8309,-1.8364,-1.8364,-1.8364,-1.8364,-1.8491,-1.8494,-1.8498,0,0,0,0,0,0,0,0,0,0,0,0,0,-1.7984,-1.7987,-1.818,-1.8181,-1.8183,-1.8306,-1.8308,-1.831,-1.8364,-1.8364,-1.8364,-1.8364,-1.849,-1.8494,-1.8498,0,0,0,0,0,0,0,0,0,0,0,0,0,-1.8086,-1.7989,-1.818,-1.8225,-1.8231,-1.8306,-1.8308,-1.831,-1.8364,-1.8364,-1.8364,-1.8364,-1.8488,-1.8494,-1.8499,-1.8538,0,0,-1.8515,-1.8517,0,0,0,0,0,0,0,0,-1.808,-1.8093,-1.8217,-1.8222,-1.8228,-1.8319,-1.8286,-1.8386,-1.8364,-1.8313,-1.8364,-1.8363,-1.8434,-1.8444,-1.8468,-1.8544,-1.8549,-1.8516,-1.8519,-1.8521,-1.8523,0,0,0,0,0,0,0,-1.8073,-1.8088,-1.823,-1.8219,-1.8226,-1.8239,-1.8253,-1.8305,-1.8374,-1.8318,-1.8322,-1.8337,-1.8437,-1.8463,-1.8471,-1.8551,-1.8515,-1.852,-1.8524,-1.8526,-1.8666,-1.8666,0,0,0,0,0,0,-1.8058,-1.8081,-1.8226,-1.8234,-1.8152,-1.8243,-1.8258,-1.829,-1.8373,-1.8386,-1.8337,-1.8339,-1.8454,-1.8465,-1.8476,-1.8528,-1.8521,-1.8526,-1.8529,-1.8665,-1.8666,-1.8667,0,0,0,0,0,0,-1.8054,-1.8071,-1.8221,-1.8159,-1.8179,-1.8246,-1.8282,-1.8293,-1.8319,-1.8388,-1.84,-1.835,-1.8454,-1.8469,-1.8522,-1.8533,-1.8529,-1.8533,-1.8665,-1.8666,-1.8666,-1.8631,0,0,0,0,0,0,-1.8048,-1.8069,-1.8085,-1.8159,-1.8182,-1.8265,-1.8282,-1.8296,-1.8328,-1.8332,-1.8404,-1.8415,-1.8455,-1.8514,-1.8528,-1.854,-1.8538,-1.8664,-1.8665,-1.8666,-1.8631,-1.863,-1.8629,0,0,0,0,0,-1.8041,-1.8069,-1.8085,-1.8102,-1.8203,-1.8266,-1.8279,-1.8325,-1.8329,-1.8345,-1.8389,-1.8413,-1.853,-1.8519,-1.8535,-1.8549,-1.8664,-1.8665,-1.8666,-1.8632,-1.863,-1.8629,0,0,0,0,0,0,-1.7993,-1.8079,-1.8098,-1.8151,-1.8201,-1.8275,-1.8297,-1.8322,-1.837,-1.8372,-1.8426,-1.8441,-1.8491,-1.8525,-1.8512,-1.8592,-1.8599,-1.8603,-1.8567,-1.8567,-1.8566,-1.8556,-1.8542,0,0,0,0,0,-1.7989,-1.8033,-1.8106,-1.8145,-1.8169,-1.8228,-1.8257,-1.8288,-1.8342,-1.8363,-1.8411,-1.8461,-1.851,-1.854,-1.8588,-1.8637,-1.8653,-1.8654,-1.8653,-1.8652,-1.8655,-1.8684,-1.8686,-1.867,-1.867,-1.867,0,0,-1.798,-1.8032,-1.8057,-1.8137,-1.8179,-1.8223,-1.8246,-1.8291,-1.8325,-1.837,-1.8424,-1.8461,-1.8521,-1.8572,-1.8597,-1.8603,-1.8663,-1.8654,-1.8652,-1.8656,-1.8686,-1.8687,-1.8688,-1.8671,-1.8671,-1.8671,0,0,-1.7986,-1.8031,-1.8069,-1.8111,-1.8175,-1.8215,-1.8224,-1.8295,-1.8321,-1.8377,-1.8412,-1.8452,-1.8533,-1.8575,-1.8607,-1.863,-1.8654,-1.8644,-1.8639,-1.8667,-1.8668,-1.8669,-1.8678,-1.8681,-1.8647,-1.8647,-1.8647,0,-1.7967,-1.8036,-1.8085,-1.8129,-1.8164,-1.8207,-1.8247,-1.8285,-1.8361,-1.8383,-1.8388,-1.8493,-1.8536,-1.8598,-1.8604,-1.8628,-1.864,-1.8636,-1.8664,-1.8666,-1.8668,-1.8677,-1.868,-1.8646,-1.8646,-1.8646,-1.8646,0,-1.8009,-1.8056,-1.8079,-1.8153,-1.819,-1.8231,-1.8286,-1.8318,-1.8346,-1.8385,-1.8441,-1.8495,-1.8555,-1.8572,-1.8599,-1.8638,-1.864,-1.8654,-1.8662,-1.8667,-1.8676,-1.868,-1.8643,-1.8644,-1.8644,-1.8645,0,0,-1.7988,-1.809,-1.8097,-1.8132,-1.8206,-1.8243,-1.8287,-1.8346,-1.8372,-1.8424,-1.8461,-1.853,-1.8544,-1.858,-1.8612,-1.8637,-1.8653,-1.8648,-1.865,-1.8647,-1.87,-1.8689,-1.8692,-1.8669,-1.867,-1.8671,-1.8695,0,-1.8005,-1.8086,-1.8132,-1.8193,-1.8238,-1.8281,-1.8318,-1.8368,-1.8406,-1.8449,-1.849,-1.8538,-1.8553,-1.8575,-1.8601,-1.8645,-1.8664,-1.8644,-1.8705,-1.8706,-1.8688,-1.8697,-1.8686,-1.8706,-1.8699,-1.87,-1.87,0,-1.8036,-1.8087,-1.8153,-1.8224,-1.8244,-1.8277,-1.8336,-1.8377,-1.8434,-1.846,-1.8501,-1.8534,-1.8581,-1.8586,-1.8652,-1.8637,-1.8665,-1.8691,-1.8692,-1.87,-1.8703,-1.8705,-1.8714,-1.8716,-1.8706,-1.8706,-1.8706,0,-1.8015,-1.81,-1.8151,-1.8179,-1.8262,-1.8285,-1.832,-1.8378,-1.8411,-1.8462,-1.8485,-1.854,-1.8571,-1.8613,-1.866,-1.8659,-1.8722,-1.873,-1.8745,-1.8743,-1.8756,-1.8754,-1.8769,-1.8773,-1.8773,-1.8773,-1.8773,0,-1.8029,-1.8068,-1.8143,-1.8174,-1.8219,-1.8272,-1.8314,-1.8353,-1.8404,-1.8443,-1.8483,-1.8519,-1.8579,-1.8623,-1.866,-1.8709,-1.8723,-1.8745,-1.8754,-1.8741,-1.8738,-1.876,-1.876,-1.8774,-1.8774,-1.8774,-1.8773,0,-1.8013,-1.8065,-1.8123,-1.8197,-1.8217,-1.8247,-1.831,-1.8342,-1.8382,-1.8432,-1.8446,-1.8509,-1.8563,-1.8614,-1.8685,-1.871,-1.8759,-1.8772,-1.874,-1.8745,-1.8757,-1.8755,-1.8786,-1.8793,-1.8792,-1.8792,-1.8792,0,-1.8018,-1.8049,-1.8127,-1.8157,-1.8192,-1.8239,-1.8274,-1.8327,-1.8361,-1.8429,-1.8453,-1.851,-1.8558,-1.8641,-1.8693,-1.8747,-1.8761,-1.8768,-1.877,-1.8756,-1.8762,-1.8759,-1.8763,-1.8767,-1.8767,-1.8767,-1.8766,0,-1.8023,-1.8048,-1.8096,-1.8154,-1.8194,-1.8242,-1.8292,-1.8313,-1.8376,-1.8412,-1.8468,-1.8505,-1.8579,-1.8634,-1.8695,-1.8732,-1.8759,-1.8766,-1.8772,-1.8759,-1.874,-1.8751,-1.8737,-1.8765,-1.8765,-1.8765,-1.8765,-1.8765,-1.8019,-1.8048,-1.8108,-1.8161,-1.8204,-1.8249,-1.8283,-1.8328,-1.8376,-1.844,-1.8468,-1.8524,-1.8582,-1.8667,-1.8703,-1.8747,-1.8754,-1.8763,-1.8765,-1.8767,-1.8764,-1.8733,-1.8759,-1.8759,-1.8759,-1.8759,-1.8759,0,-1.8026,-1.8067,-1.8115,-1.8183,-1.8225,-1.8248,-1.8304,-1.8337,-1.8386,-1.8438,-1.8485,-1.8549,-1.8603,-1.866,-1.8717,-1.8742,-1.8756,-1.8755,-1.8754,-1.8762,-1.8755,-1.8744,-1.8743,-1.8743,-1.8743,-1.8743,-1.8743,-1.8743,-1.8034,-1.8086,-1.8118,-1.8192,-1.8232,-1.8288,-1.8318,-1.836,-1.8402,-1.8472,-1.8517,-1.8554,-1.8608,-1.867,-1.8721,-1.8736,-1.8755,-1.8751,-1.877,-1.8761,-1.8762,-1.8763,-1.8753,-1.8755,-1.8755,-1.8774,-1.8774,-1.8774]}]]